This demonstration page uses our WeatherBlox Daily Observations layout. Learn more.

39.29038, -76.61219

Hourly Observations for January 13, 2019

Temp ( °F °C ) Dew Point ( °F °C ) Humidity (%) Winds ( mph kmh ) Pressure ( in mb ) Visibility ( mi km ) Precip ( " mm )
12:54 am 00:54 undefined 29 -1.7 25 -3.9 85 85 undefined N/A 30.45 1031 N/A 0.02 0.508
1:54 am 01:54 undefined 29 -1.7 25 -3.9 85 85 undefined N/A 30.42 1030 N/A 0.01 0.254
2:54 am 02:54 undefined 28 -2.2 24 -4.4 85 85 undefined N/A 30.42 1030 N/A 0.02 0.508
3:54 am 03:54 undefined 28 -2.2 25 -3.9 88 88 undefined N/A 30.39 1029 N/A 0.03 0.762
4:54 am 04:54 undefined 28 -2.2 24 -4.4 85 85 undefined N/A 30.39 1029 N/A 0.03 0.762
5:54 am 05:54 undefined 28 -2.2 25 -3.9 88 88 undefined N/A 30.36 1028 N/A 0.02 0.508
6:54 am 06:54 undefined 28 -2.2 24 -4.4 85 85 undefined N/A 30.45 1031 N/A 0.02 0.508
7:54 am 07:54 undefined 28 -2.2 24 -4.4 85 85 undefined N/A 30.33 1027 N/A 0.02 0.508
8:54 am 08:54 undefined 28 -2.2 24 -4.4 85 85 undefined N/A 30.33 1027 N/A 0.02 0.508
9:54 am 09:54 undefined 29 -1.7 25 -3.9 85 85 undefined N/A 30.39 1029 N/A 0.02 0.508
10:54 am 10:54 undefined 29 -1.7 25 -3.9 85 85 undefined N/A 30.36 1028 N/A 0.01 0.254
11:54 am 11:54 undefined 30 -1.1 25 -3.9 82 82 undefined N/A 30.33 1027 N/A 0 0
12:54 pm 12:54 undefined 31 -0.6 25 -3.9 79 79 undefined N/A 30.27 1025 N/A 0 0
1:54 pm 13:54 undefined 32 0 25 -3.9 75 75 undefined N/A 30.24 1024 N/A 0 0
2:54 pm 14:54 undefined 32 0 26 -3.3 79 79 undefined N/A 30.24 1024 N/A 0.01 0.254
3:54 pm 15:54 undefined 32 0 26 -3.3 79 79 undefined N/A 30.24 1024 N/A 0 0
4:54 pm 16:54 undefined 31 -0.6 25 -3.9 79 79 undefined N/A 30.24 1024 N/A 0 0
5:54 pm 17:54 undefined 32 0 25 -3.9 75 75 undefined N/A 30.24 1024 N/A 0 0
6:54 pm 18:54 undefined 32 0 24 -4.4 73 73 undefined N/A 30.24 1024 N/A 0 0
7:54 pm 19:54 undefined 32 0 22 -5.6 66 66 undefined N/A 30.24 1024 N/A 0 0
8:54 pm 20:54 undefined 32 0 23 -5 69 69 undefined N/A 30.27 1025 N/A 0 0
9:54 pm 21:54 undefined 32 0 23 -5 69 69 undefined N/A 30.27 1025 N/A 0 0
10:54 pm 22:54 undefined 32 0 21 -6.1 64 64 undefined N/A 30.27 1025 N/A 0 0
11:54 pm 23:54 undefined 32 0 17 -8.3 54 54 undefined N/A 30.24 1024 N/A 0 0

Powered by AerisWeather